• en France
  • Liste des pays
  • À 7 jours
  • Température de l'eau
  • Carte satellitaire
  • Carte météo
  • Widgets météo
  • user-avatar
    Se connecter

    Météo par heure à Manizales

    Ce jour, 22 Octobre, Lundi

    Heure Température Précipitation Vent Pression Humidité
    00:00 +14°C° 0.3 mm 1 m/s 602 mmHg 77%
    01:00 +14°C° 0.3 mm 1 m/s 602 mmHg 77%
    02:00 +14°C° 0.2 mm 1 m/s 602 mmHg 77%
    03:00 +14°C° 0.2 mm 1 m/s 602 mmHg 78%
    04:00 +14°C° 0.2 mm 1 m/s 601 mmHg 78%
    05:00 +13°C° 0.3 mm 0 m/s 602 mmHg 75%
    06:00 +14°C° 0.3 mm 0 m/s 603 mmHg 73%
    07:00 +15°C° 0.3 mm 0 m/s 603 mmHg 70%
    08:00 +17°C° 0.3 mm 0 m/s 604 mmHg 65%
    09:00 +21°C° 0.3 mm 1 m/s 605 mmHg 59%
    10:00 +22°C° 0.3 mm 1 m/s 606 mmHg 53%
    11:00 +23°C° 0.3 mm 1 m/s 606 mmHg 52%
    12:00 +24°C° 0.3 mm 1 m/s 605 mmHg 51%
    13:00 +24°C° 0.3 mm 1 m/s 605 mmHg 50%
    14:00 +23°C° 0.7 mm 1 m/s 604 mmHg 53%
    15:00 +22°C° 0.7 mm 1 m/s 603 mmHg 57%
    16:00 +21°C° 0.7 mm 1 m/s 603 mmHg 60%
    17:00 +20°C° 1.5 mm 1 m/s 602 mmHg 70%
    18:00 +18°C° 1.5 mm 1 m/s 602 mmHg 79%
    19:00 +15°C° 1.5 mm 1 m/s 602 mmHg 88%
    20:00 +14°C° 1.6 mm 1 m/s 602 mmHg 90%
    21:00 +14°C° 1.6 mm 1 m/s 602 mmHg 91%
    22:00 +14°C° 1.6 mm 1 m/s 603 mmHg 93%
    23:00 +14°C° 1.4 mm 1 m/s 602 mmHg 93%

    Demain, 23 Octobre, Mardi

    Heure Température Précipitation Vent Pression Humidité
    00:00 +14°C° 1.4 mm 1 m/s 602 mmHg 93%
    01:00 +13°C° 1.4 mm 1 m/s 602 mmHg 93%
    02:00 +13°C° 1 mm 1 m/s 602 mmHg 92%
    03:00 +13°C° 1 mm 1 m/s 602 mmHg 92%
    04:00 +13°C° 1 mm 1 m/s 602 mmHg 91%
    05:00 +12°C° 0.7 mm 0 m/s 602 mmHg 91%
    06:00 +13°C° 0.7 mm 0 m/s 602 mmHg 90%
    07:00 +13°C° 0.7 mm 0 m/s 603 mmHg 89%
    08:00 +14°C° 0.6 mm 0 m/s 603 mmHg 84%
    09:00 +16°C° 0.6 mm 0 m/s 604 mmHg 79%
    10:00 +19°C° 0.6 mm 1 m/s 605 mmHg 74%
    11:00 +20°C° 0.5 mm 1 m/s 604 mmHg 70%
    12:00 +21°C° 0.5 mm 1 m/s 604 mmHg 66%
    13:00 +22°C° 0.5 mm 1 m/s 604 mmHg 62%
    14:00 +21°C° 0.7 mm 1 m/s 603 mmHg 63%
    15:00 +21°C° 0.7 mm 1 m/s 603 mmHg 65%
    16:00 +20°C° 0.7 mm 1 m/s 602 mmHg 67%
    17:00 +19°C° 0.7 mm 1 m/s 602 mmHg 72%
    18:00 +16°C° 0.7 mm 1 m/s 602 mmHg 77%
    19:00 +15°C° 0.7 mm 1 m/s 602 mmHg 82%
    20:00 +15°C° 0.4 mm 1 m/s 602 mmHg 82%
    21:00 +15°C° 0.4 mm 1 m/s 603 mmHg 83%
    22:00 +14°C° 0.4 mm 1 m/s 603 mmHg 83%
    23:00 +14°C° 0.3 mm 1 m/s 603 mmHg 83%

    Après-demain, 24 Octobre, Mercredi

    Heure Température Précipitation Vent Pression Humidité
    00:00 +14°C° 0.3 mm 1 m/s 603 mmHg 82%
    01:00 +14°C° 0.3 mm 1 m/s 602 mmHg 82%
    02:00 +14°C° 0.3 mm 1 m/s 602 mmHg 81%
    03:00 +14°C° 0.3 mm 1 m/s 602 mmHg 81%
    04:00 +13°C° 0.3 mm 1 m/s 602 mmHg 80%
    05:00 +14°C° 0.2 mm 1 m/s 602 mmHg 78%
    06:00 +13°C° 0.2 mm 0 m/s 603 mmHg 76%
    07:00 +14°C° 0.2 mm 0 m/s 603 mmHg 74%
    08:00 +18°C° 0.2 mm 1 m/s 604 mmHg 67%
    09:00 +20°C° 0.2 mm 1 m/s 605 mmHg 59%
    10:00 +23°C° 0.2 mm 1 m/s 606 mmHg 52%
    11:00 +23°C° 0.2 mm 1 m/s 606 mmHg 51%
    12:00 +24°C° 0.2 mm 1 m/s 605 mmHg 49%
    13:00 +25°C° 0.2 mm 1 m/s 605 mmHg 48%
    14:00 +24°C° 0.3 mm 1 m/s 604 mmHg 51%
    15:00 +23°C° 0.3 mm 1 m/s 603 mmHg 54%
    16:00 +22°C° 0.3 mm 1 m/s 603 mmHg 57%
    17:00 +20°C° 0.5 mm 1 m/s 602 mmHg 64%
    18:00 +19°C° 0.5 mm 1 m/s 602 mmHg 71%
    19:00 +16°C° 0.5 mm 1 m/s 602 mmHg 77%
    20:00 +16°C° 0.4 mm 1 m/s 602 mmHg 78%
    21:00 +15°C° 0.4 mm 1 m/s 603 mmHg 78%
    22:00 +15°C° 0.4 mm 1 m/s 603 mmHg 78%
    23:00 +15°C° 0.3 mm 1 m/s 603 mmHg 79%

    25 Octobre, Jeudi

    Heure Température Précipitation Vent Pression Humidité
    00:00 +14°C° 0.3 mm 0 m/s 602 mmHg 80%
    01:00 +14°C° 0.3 mm 0 m/s 602 mmHg 80%
    02:00 +13°C° 0.4 mm 0 m/s 602 mmHg 82%
    03:00 +13°C° 0.4 mm 0 m/s 602 mmHg 83%
    04:00 +13°C° 0.4 mm 0 m/s 601 mmHg 84%
    05:00 +13°C° 0.3 mm 0 m/s 602 mmHg 84%
    06:00 +13°C° 0.3 mm 0 m/s 603 mmHg 83%
    07:00 +14°C° 0.3 mm 0 m/s 603 mmHg 83%
    08:00 +15°C° 0.3 mm 0 m/s 604 mmHg 78%
    09:00 +17°C° 0.3 mm 0 m/s 605 mmHg 72%
    10:00 +19°C° 0.3 mm 0 m/s 605 mmHg 67%
    11:00 +19°C° 0.2 mm 0 m/s 605 mmHg 62%
    12:00 +22°C° 0.2 mm 1 m/s 605 mmHg 57%
    13:00 +23°C° 0.2 mm 1 m/s 604 mmHg 52%
    14:00 +23°C° 0.2 mm 1 m/s 603 mmHg 54%
    15:00 +22°C° 0.2 mm 1 m/s 603 mmHg 56%
    16:00 +22°C° 0.2 mm 1 m/s 602 mmHg 57%
    17:00 +20°C° 0.2 mm 1 m/s 602 mmHg 64%
    18:00 +18°C° 0.2 mm 1 m/s 602 mmHg 70%
    19:00 +16°C° 0.2 mm 1 m/s 602 mmHg 77%
    20:00 +16°C° 0.2 mm 1 m/s 602 mmHg 78%
    21:00 +15°C° 0.2 mm 1 m/s 602 mmHg 80%
    22:00 +15°C° 0.2 mm 1 m/s 603 mmHg 81%
    23:00 +15°C° 0.2 mm 1 m/s 602 mmHg 82%

    26 Octobre, Vendredi

    Heure Température Précipitation Vent Pression Humidité
    00:00 +14°C° 0.2 mm 0 m/s 602 mmHg 82%
    01:00 +14°C° 0.2 mm 0 m/s 602 mmHg 83%
    02:00 +14°C° 0.2 mm 0 m/s 601 mmHg 83%
    03:00 +13°C° 0.2 mm 0 m/s 601 mmHg 83%
    04:00 +13°C° 0.2 mm 0 m/s 601 mmHg 83%
    05:00 +14°C° 0.2 mm 0 m/s 602 mmHg 82%
    06:00 +14°C° 0.2 mm 0 m/s 603 mmHg 80%
    07:00 +15°C° 0.2 mm 0 m/s 603 mmHg 79%
    08:00 +16°C° 0.2 mm 0 m/s 604 mmHg 73%
    09:00 +18°C° 0.2 mm 0 m/s 605 mmHg 67%
    10:00 +20°C° 0.2 mm 0 m/s 605 mmHg 61%
    11:00 +20°C° 0.2 mm 0 m/s 605 mmHg 58%
    12:00 +21°C° 0.2 mm 0 m/s 605 mmHg 55%
    13:00 +22°C° 0.2 mm 0 m/s 604 mmHg 53%
    14:00 +21°C° 0.2 mm 0 m/s 604 mmHg 56%
    15:00 +21°C° 0.2 mm 0 m/s 603 mmHg 59%
    16:00 +20°C° 0.2 mm 0 m/s 602 mmHg 62%
    17:00 +20°C° 0.3 mm 1 m/s 602 mmHg 67%
    18:00 +19°C° 0.3 mm 1 m/s 602 mmHg 73%
    19:00 +16°C° 0.3 mm 1 m/s 602 mmHg 78%
    20:00 +16°C° 0.5 mm 1 m/s 602 mmHg 79%
    21:00 +16°C° 0.5 mm 1 m/s 603 mmHg 80%
    22:00 +15°C° 0.5 mm 1 m/s 603 mmHg 81%
    23:00 +15°C° 0.4 mm 1 m/s 603 mmHg 82%

    27 Octobre, Samedi

    Heure Température Précipitation Vent Pression Humidité
    00:00 +15°C° 0.4 mm 1 m/s 602 mmHg 82%
    01:00 +15°C° 0.4 mm 1 m/s 602 mmHg 83%
    02:00 +15°C° 0.2 mm 1 m/s 602 mmHg 83%
    03:00 +14°C° 0.2 mm 1 m/s 602 mmHg 83%
    04:00 +14°C° 0.2 mm 1 m/s 601 mmHg 83%
    05:00 +15°C° 0.1 mm 1 m/s 602 mmHg 81%
    06:00 +15°C° 0.1 mm 1 m/s 603 mmHg 79%
    07:00 +15°C° 0.1 mm 0 m/s 603 mmHg 77%
    08:00 +19°C° 0 mm 1 m/s 604 mmHg 68%
    09:00 +22°C° 0 mm 1 m/s 605 mmHg 59%
    10:00 +24°C° 0 mm 1 m/s 606 mmHg 50%
    11:00 +25°C° 0.1 mm 1 m/s 606 mmHg 48%
    12:00 +26°C° 0.1 mm 1 m/s 605 mmHg 46%
    13:00 +27°C° 0.1 mm 1 m/s 605 mmHg 44%
    14:00 +25°C° 0.4 mm 1 m/s 604 mmHg 48%
    15:00 +24°C° 0.4 mm 1 m/s 603 mmHg 53%
    16:00 +23°C° 0.4 mm 1 m/s 603 mmHg 57%
    17:00 +21°C° 0.4 mm 1 m/s 603 mmHg 63%
    18:00 +20°C° 0.4 mm 1 m/s 603 mmHg 69%
    19:00 +18°C° 0.4 mm 1 m/s 603 mmHg 75%
    20:00 +18°C° 0.2 mm 1 m/s 603 mmHg 76%
    21:00 +16°C° 0.2 mm 1 m/s 603 mmHg 77%
    22:00 +16°C° 0.2 mm 1 m/s 604 mmHg 77%
    23:00 +16°C° 0.4 mm 1 m/s 603 mmHg 79%

    28 Octobre, Dimanche

    Heure Température Précipitation Vent Pression Humidité
    00:00 +15°C° 0.4 mm 1 m/s 603 mmHg 81%
    01:00 +15°C° 0.4 mm 1 m/s 602 mmHg 83%
    02:00 +15°C° 0.5 mm 1 m/s 602 mmHg 84%
    03:00 +15°C° 0.5 mm 1 m/s 602 mmHg 84%
    04:00 +15°C° 0.5 mm 1 m/s 602 mmHg 85%
    05:00 +15°C° 0.2 mm 1 m/s 603 mmHg 83%
    06:00 +15°C° 0.2 mm 1 m/s 603 mmHg 82%
    07:00 +16°C° 0.2 mm 1 m/s 604 mmHg 81%
    08:00 +19°C° 0.1 mm 1 m/s 605 mmHg 72%
    09:00 +21°C° 0.1 mm 1 m/s 605 mmHg 64%
    10:00 +23°C° 0.1 mm 1 m/s 606 mmHg 55%
    11:00 +24°C° 0.1 mm 1 m/s 606 mmHg 51%
    12:00 +25°C° 0.1 mm 1 m/s 606 mmHg 48%
    13:00 +26°C° 0.1 mm 1 m/s 605 mmHg 44%
    14:00 +25°C° 0.2 mm 1 m/s 605 mmHg 47%
    15:00 +25°C° 0.2 mm 1 m/s 604 mmHg 50%
    16:00 +22°C° 0.2 mm 0 m/s 603 mmHg 52%
    17:00 +22°C° 0.3 mm 1 m/s 603 mmHg 60%
    18:00 +20°C° 0.3 mm 1 m/s 603 mmHg 67%
    19:00 +18°C° 0.3 mm 1 m/s 603 mmHg 74%
    20:00 +18°C° 0.3 mm 1 m/s 603 mmHg 76%
    21:00 +16°C° 0.3 mm 1 m/s 603 mmHg 78%
    22:00 +16°C° 0.3 mm 1 m/s 603 mmHg 80%
    23:00 +16°C° 0.7 mm 1 m/s 603 mmHg 81%
    Voir plus